Ephrata, WA
on Monday, February 4, 2013

Monday
Previous Day Next Day
Daily Summary
 ActualAverageRecord
Temperature
Mean Temperature °F 32°F  
Max Temperature 35°F 39°F 60°F (1967)
Min Temperature 30°F 24°F -19°F (1985)
Degree Days
Heating Degree Days 32 33  
Month to date heating degree days 133 133  
Since 1 July heating degree days 3569 3841  
Cooling Degree Days 0 0  
Month to date cooling degree days 0 0  
Year to date cooling degree days 0 0  
Moisture
Dew Point 30°F   
Average Humidity 91    
Maximum Humidity 100    
Minimum Humidity 82    
Precipitation
Precipitation 0.00 in 0.03 in 0.15 in (1950)
Month to date precipitation 0.00 0.10  
Year to date precipitation 0.19 1.01  
Wind
Wind Speed 3 mph   
Max Wind Speed 12 mph   
Max Gust Speed 24 mph   
Visibility 5 miles   
Events Fog   

Key: T is trace of precipitation, MM is missing value
Source: NWS Daily Summary
Time(PST)TemperatureDew PointHumidity Pressure Visibility Wind DirectionWind SpeedGust SpeedPrecipitationEvents Conditions
12:53 AM 32.0°F 30.0°F 92% 30.16 in 6.0 miles Calm Calm - N/A   Overcast
3:53 AM 32.0°F 30.0°F 92% 30.16 in 5.0 miles Calm Calm - N/A   Overcast
4:53 AM 30.9°F 30.0°F 96% 30.15 in 5.0 miles Calm Calm - N/A   Overcast
5:53 AM 30.9°F 30.0°F 96% 30.14 in 4.0 miles SSW 4.6 mph - N/A   Overcast
6:21 AM 30.2°F 30.2°F 100% 30.10 in 2.5 miles Calm Calm - N/A   Overcast
6:30 AM 30.2°F 28.4°F 93% 30.09 in 0.8 miles SE 4.6 mph - N/A   Overcast
6:51 AM 30.2°F 28.4°F 93% 30.09 in 0.2 miles Calm Calm - N/A Fog Light Freezing Fog
6:53 AM 30.0°F 30.0°F 100% 30.13 in 0.2 miles SE 3.5 mph - N/A Fog Light Freezing Fog
7:00 AM 30.2°F 28.4°F 93% 30.09 in 0.5 miles Calm Calm - N/A Fog Light Freezing Fog
7:12 AM 30.2°F 30.2°F 100% 30.11 in 0.2 miles Calm Calm - N/A Fog Light Freezing Fog
7:53 AM 30.9°F 30.0°F 96% 30.16 in 0.2 miles Calm Calm - N/A Fog Light Freezing Fog
8:53 AM 30.9°F 28.9°F 92% 30.16 in 0.2 miles Calm Calm - N/A Fog Light Freezing Fog
9:53 AM 30.9°F 30.0°F 96% 30.17 in 0.2 miles Calm Calm - N/A Fog Light Freezing Fog
10:44 AM 30.2°F 30.2°F 100% 30.13 in 0.5 miles ENE 3.5 mph - N/A Fog Light Freezing Fog
10:53 AM 30.9°F 30.0°F 96% 30.17 in 0.5 miles Calm Calm - N/A Fog Light Freezing Fog
11:29 AM 30.2°F 30.2°F 100% 30.12 in 1.5 miles NE 3.5 mph - N/A   Overcast
11:37 AM 30.2°F 30.2°F 100% 30.12 in 2.5 miles Calm Calm - N/A   Overcast
11:44 AM 30.2°F 30.2°F 100% 30.11 in 3.0 miles Calm Calm - N/A   Overcast
11:53 AM 30.9°F 30.0°F 96% 30.15 in 4.0 miles NE 3.5 mph - N/A   Overcast
12:53 PM 32.0°F 30.9°F 96% 30.13 in 6.0 miles Calm Calm - N/A   Overcast
1:49 PM 33.8°F 30.2°F 87% 30.07 in 9.0 miles Calm Calm - N/A   Overcast
1:53 PM 34.0°F 30.9°F 89% 30.11 in 10.0 miles Calm Calm - N/A   Overcast
2:53 PM 35.1°F 30.9°F 85% 30.09 in 10.0 miles NE 4.6 mph - N/A   Overcast
4:53 PM 33.1°F 30.0°F 89% 30.07 in 9.0 miles North 5.8 mph - N/A   Overcast
5:17 PM 33.8°F 30.2°F 87% 30.01 in 9.0 miles North 6.9 mph - N/A   Overcast
5:53 PM 32.0°F 30.0°F 92% 30.06 in 9.0 miles North 5.8 mph - N/A   Overcast
6:53 PM 32.0°F 30.0°F 92% 30.07 in 8.0 miles North 5.8 mph - N/A   Overcast
7:53 PM 32.0°F 30.0°F 92% 30.05 in 6.0 miles North 6.9 mph - N/A   Overcast
8:53 PM 32.0°F 30.9°F 96% 30.02 in 6.0 miles NNE 8.1 mph - N/A   Overcast
9:36 PM 32.0°F 30.2°F 93% 29.97 in 6.0 miles North 10.4 mph - N/A   Overcast
9:53 PM 33.1°F 30.9°F 92% 30.01 in 9.0 miles North 8.1 mph - N/A   Overcast
10:53 PM 33.1°F 30.9°F 92% 29.99 in 8.0 miles North 8.1 mph - N/A   Overcast
11:53 PM 34.0°F 32.0°F 92% 29.99 in 9.0 miles Calm Calm - N/A   Overcast
Moon Phase
Feb. 04 Feb. 10 Feb. 17 Feb. 25 Mar. 04
Sunrise:07:19 AM (PST) Moon Rise:02:06 AM (PST)2/4
Sunset:05:05 PM (PST) Moon Set:11:26 AM (PST)2/4

Copyright © 2014 The Weather Underground, Inc.